Home   Weather   Camrose   Past weeks

Flag for Canada Past Weather in Camrose, Alberta, Canada — Yesterday and Last 2 Weeks

Now
41 °F

Partly sunny.


Feels Like: 39 °F
Forecast: 29 / 43 °F
Wind: 3 mph from North

Location: Edmonton International

Current Time: Apr 28, 2017 at 12:13:36 pm

Latest Report: Apr 28, 2017 at 11:00 am


Visibility: 15 mi

Pressure: 30.17 "Hg (27.53 "Hg at 744m altitude)

Humidity: 61%

Dew Point: 28 °F

Location of CamroseLocation

Past Weather in Camrose — Graph

°F

Camrose Temperature Yesterday

Maximum temperature yesterday: 41 °F (at 4:47 pm)
Minimum temperature yesterday: 27 °F (at 3:00 am)
Average temperature yesterday: 34 °F

High & Low Weather Summary for the Past Weeks

 TemperatureHumidityPressure
High55 °F (Apr 20, 5:00 pm)100% (Apr 14, 3:00 am)30.46 "Hg (Apr 14, 3:00 am)
Low14 °F (Apr 16, 7:00 am)41% (Apr 20, 7:00 pm)29.72 "Hg (Apr 14, 1:00 pm)
Average33 °F86%30.02 "Hg
* Reported Apr 13 11:00 am — Apr 28 11:00 am, Camrose, Weather by CustomWeather, © 2017

Note: Actual official high and low records may vary slightly from our data, if they occured in-between our weather recording intervals... More about our weather records

Advertising

Camrose Weather History for the Previous 24 Hours

Scroll right to see more
 ConditionsComfort  
Time TempWeatherWind HumidityBarometerVisibility
11:00 am
Fri, Apr 28
41 °FPartly sunny.3 mph61%30.17 "Hg15 mi
10:00 am37 °FPartly sunny.2 mph75%30.16 "Hg15 mi
9:00 am34 °FPartly sunny.2 mph100%30.16 "Hg12 mi
8:30 am32 °FIce fog.No wind93%30.16 "Hg3 mi
8:08 am30 °FIce fog.3 mph93%30.15 "Hg2 mi
7:21 am30 °FBroken clouds.No wind93%30.13 "Hg8 mi
7:00 am27 °FIce fog.2 mph93%30.13 "Hg1 mi
6:34 am25 °FIce fog.2 mph93%30.12 "Hg1 mi
6:17 am25 °FIce fog.2 mph93%30.12 "Hg1 mi
5:56 am28 °FIce fog.2 mph93%30.11 "Hg1 mi
5:00 am28 °FPassing clouds.No wind93%30.10 "Hg15 mi
4:00 am30 °FPassing clouds.No wind93%30.08 "Hg15 mi
3:22 am30 °FPartly cloudy.3 mph93%30.07 "Hg12 mi
3:00 am30 °FIce fog.3 mph93%30.07 "Hg6 mi
2:34 am28 °FPassing clouds.6 mph93%30.06 "Hg15 mi
1:00 am30 °FPassing clouds.6 mph93%30.03 "Hg15 mi
12:00 am30 °FPartly cloudy.2 mph86%30.02 "Hg15 mi
11:00 pm
Thu, Apr 27
34 °FScattered showers. Passing clouds.5 mph87%30.01 "Hg15 mi
10:27 pm36 °FScattered showers. Passing clouds.6 mph75%30.01 "Hg15 mi
10:00 pm36 °FSprinkles. Mostly cloudy.5 mph75%30.00 "Hg15 mi
9:51 pm36 °FPassing clouds.3 mph75%30.00 "Hg15 mi
9:12 pm37 °FPartly cloudy.3 mph70%29.98 "Hg15 mi
9:00 pm37 °FPassing clouds.3 mph70%29.97 "Hg15 mi
8:00 pm39 °FPartly sunny.6 mph65%29.96 "Hg15 mi
7:00 pm39 °FBroken clouds.9 mph65%29.94 "Hg15 mi
6:00 pm41 °FMostly cloudy.10 mph61%29.92 "Hg15 mi
5:00 pm41 °FBroken clouds.10 mph61%29.90 "Hg15 mi
4:47 pm41 °FMostly cloudy.9 mph61%29.90 "Hg15 mi
4:23 pm39 °FSleet. Partly sunny.8 mph65%29.89 "Hg15 mi
4:00 pm39 °FBroken clouds.7 mph65%29.89 "Hg15 mi
3:00 pm39 °FScattered showers. Mostly cloudy.5 mph65%29.88 "Hg15 mi
2:35 pm39 °FScattered showers. Mostly cloudy.5 mph70%29.88 "Hg15 mi
2:01 pm39 °FSleet. Mostly cloudy.5 mph70%29.88 "Hg12 mi
1:10 pm37 °FSnow flurries. Mostly cloudy.3 mph75%29.88 "Hg10 mi
1:00 pm37 °FScattered showers. Mostly cloudy.No wind75%29.88 "Hg15 mi
12:00 pm37 °FMostly cloudy.2 mph87%29.87 "Hg15 mi
Weather by CustomWeather, © 2017

See weather overviewHow to use our weather pages